Location: Drummondville
(45.8830°N, 72.4830°W)
Time: 12:36:19
(UTC-05:00)

OTV 5 (USA 277) - Pass Details

Date: 11 November 2017
Orbit: 404 x 417 km, 43.0° (Epoch: 07 September)

Event Time Altitude Azimuth Distance (km) Brightness Sun altitude
Exits shadow 04:33:31 25° 154° (SSE) 855 ? -22.9°
Drops below altitude 10° 04:36:10 10° 101° (E) 1,456 ? -22.4°
Sets 04:38:28 0° 88° (E) 2,317 ? -22.0°
